Location: *
(46.1866°S, 178.5290°W)
Time: 12:55:24
(UTC+00:00)

Cosmos 1461 - Pass Details

Date: 03 October 2021
Orbit: 520 x 642 km, 65.0° (Epoch: 18 October)

Event Time Altitude Azimuth Distance (km) Brightness Sun altitude
Rises 07:47:34 0° 326° (NW) 2,718 6.5 -17.8°
Reaches altitude 10° 07:49:43 10° 325° (NW) 1,849 5.6 -18.1°
Maximum altitude 07:53:53 90° 267° (W) 587 2.8 -18.7°
Drops below altitude 10° 07:58:17 10° 144° (SE) 1,950 5.5 -19.4°
Sets 08:00:37 0° 143° (SE) 2,881 6.4 -19.8°
